Tracking 35331 objects as of 15-Sep-2026
HD Live streaming from Space Station
objects crossing your sky now

TITAN 4 R/B


TITAN 4 R/B is no longer on orbit


NORAD ID: 25670
Int'l Code: 1999-017B
Launch date: April 9, 1999
Source: United States (US)
Launch site: AIR FORCE EASTERN TEST RANGE (AFETR)
Decay date: 1999-07-02

Note: This is a ROCKET BODY
Your satellite tracking list
Your tracking list is empty




NASA's NSSDC Master Catalog

Two Line Element Set (TLE):
1 25670U 99017B   99182.89087212 +.49683666 -75085-5 +26589-3 0  9994
2 25670 028.6194 034.7790 0036179 044.5503 315.5816 16.51489482013066
Source of the keplerian elements: AFSPC